Davenport, IA

8:04 AM CDT on May 24, 2017 (GMT -0500)
Davenport Municipal

Weather History for KDVN - June, 2013

Change the Weather History Date:

Tuesday, June 25, 2013

  Actual Average Record
Temperature  
Mean Temperature 78 °F 72 °F  
Max Temperature 86 °F 83 °F 93 °F (1983)
Min Temperature 69 °F 62 °F 43 °F (2004)
Degree Days  
Heating Degree Days 0 0  
Month to date heating degree days 24 22  
Since 1 June heating degree days 24 22  
Since 1 July heating degree days 6567 6509  
Cooling Degree Days 13 8  
Month to date cooling degree days 154 142  
Year to date cooling degree days 249 203  
Since 1 June cooling degree days 154 142  
Growing Degree Days 26 (Base 50)    
Moisture  
Dew Point 70 °F    
Average Humidity 78    
Maximum Humidity 90    
Minimum Humidity 65    
Precipitation  
Precipitation 0.05 in 0.14 in 1.14 in (2003)
Month to date precipitation 3.35 3.58  
Year to date precipitation 24.32 16.39  
Snow  
Snow 0.00 in - - ()
Month to date snowfall 0.0  
Since 1 June snowfall 0.0  
Since 1 July snowfall 27.1  
Snow Depth 0.00 in    
Sea Level Pressure  
Sea Level Pressure 29.85 in    
Wind  
Wind Speed 9 mph (South)    
Max Wind Speed 18 mph    
Max Gust Speed 24 mph    
Visibility 8 miles    
Events Rain , Thunderstorm    
T = Trace of Precipitation, MM = Missing Value Source: NWS Daily Summary

Daily Weather History Graph

Daily Weather History Graph

Search for Another Location

Airport or City:

Trip Planner

Search our weather history database for the weather conditions in past years. The results will help you decide how hot, cold, wet, or windy it might be!

Date:

Astronomy

Jun. 25, 2013 Rise Set
Actual Time 5:29 AM CDT 8:40 PM CDT
Civil Twilight 4:55 AM CDT 9:14 PM CDT
Nautical Twilight 4:11 AM CDT 9:58 PM CDT
Astronomical Twilight 3:18 AM CDT 10:51 PM CDT
Moon 10:23 PM CDT (6/25) 8:11 AM CDT (6/25)
Length of Visible Light 16h 19m
Length of Day
15h 11m
Waning Gibbous, 92% of the Moon is Illuminated
Jun 25
Waning Gibbous
Jun 29
Last Quarter
Jul 8
New
Jul 15
First Quarter
Jul 22
Full

Hourly Weather History & Observations

Time (CDT) Temp. Heat Index Dew Point Humidity Pressure Visibility Wind Dir Wind Speed Gust Speed Precip Events Conditions
12:52 AM 69.1 °F - 64.9 °F 87% 29.89 in 10.0 mi SSE 11.5 mph - N/A   Clear
1:52 AM 69.1 °F - 66.0 °F 90% 29.87 in 10.0 mi SSE 10.4 mph - N/A   Clear
2:52 AM 70.0 °F - 66.9 °F 90% 29.87 in 8.0 mi SSE 6.9 mph - N/A   Clear
3:52 AM 70.0 °F - 66.9 °F 90% 29.86 in 8.0 mi SSE 6.9 mph - N/A   Clear
4:52 AM 70.0 °F - 66.9 °F 90% 29.85 in 7.0 mi South 8.1 mph - N/A   Clear
5:52 AM 71.1 °F - 68.0 °F 90% 29.83 in 6.0 mi South 9.2 mph - N/A   Clear
6:48 AM 73.4 °F - 69.8 °F 88% 29.87 in 7.0 mi SSW 8.1 mph - N/A Thunderstorm Mostly Cloudy
6:52 AM 73.0 °F - 69.1 °F 87% 29.86 in 6.0 mi SSW 6.9 mph - N/A Thunderstorm Mostly Cloudy
7:15 AM 73.4 °F - 69.8 °F 88% 29.88 in 6.0 mi SSE 5.8 mph - 0.00 in   Overcast
7:52 AM 73.0 °F - 70.0 °F 90% 29.89 in 3.0 mi SSW 3.5 mph - 0.04 in Rain Rain
7:59 AM 73.4 °F - 69.8 °F 88% 29.91 in 5.0 mi Calm Calm - 0.00 in Rain , Thunderstorm Light Thunderstorms and Rain
8:14 AM 73.4 °F - 69.8 °F 88% 29.91 in 5.0 mi ENE 5.8 mph - 0.00 in Rain Light Rain
8:52 AM 73.0 °F - 71.1 °F 93% 29.91 in 5.0 mi ENE 6.9 mph - 0.00 in   Mostly Cloudy
9:52 AM 77.0 °F - 72.0 °F 84% 29.90 in 6.0 mi ESE 9.2 mph - N/A   Haze
10:52 AM 81.0 °F 85.8 °F 73.0 °F 77% 29.87 in 7.0 mi South 5.8 mph - 0.01 in   Clear
11:47 AM 82.4 °F 87.2 °F 71.6 °F 70% 29.89 in 8.0 mi SSW 16.1 mph 21.9 mph N/A   Mostly Cloudy
11:52 AM 82.9 °F 88.8 °F 73.0 °F 72% 29.88 in 8.0 mi SSW 15.0 mph 21.9 mph N/A   Mostly Cloudy
12:01 PM 82.4 °F 88.2 °F 73.4 °F 74% 29.89 in 8.0 mi SSW 12.7 mph 24.2 mph N/A   Scattered Clouds
12:52 PM 84.0 °F 89.6 °F 72.0 °F 67% 29.85 in 9.0 mi SSW 11.5 mph 20.7 mph N/A   Clear
1:52 PM 82.0 °F 86.7 °F 72.0 °F 71% 29.82 in 9.0 mi South 13.8 mph - N/A   Clear
2:52 PM 80.1 °F 83.6 °F 71.1 °F 74% 29.83 in 8.0 mi SSW 11.5 mph - N/A   Clear
3:52 PM 84.0 °F 90.2 °F 73.0 °F 69% 29.81 in 9.0 mi SW 8.1 mph - N/A   Clear
4:52 PM 84.0 °F 89.6 °F 72.0 °F 67% 29.79 in 9.0 mi SSW 9.2 mph - N/A   Clear
5:52 PM 84.9 °F 91.4 °F 73.0 °F 67% 29.78 in 9.0 mi SW 9.2 mph - N/A   Clear
6:52 PM 84.0 °F 90.2 °F 73.0 °F 69% 29.78 in 10.0 mi SSW 5.8 mph - N/A   Clear
7:52 PM 82.0 °F 86.3 °F 71.1 °F 69% 29.79 in 10.0 mi SSW 6.9 mph - N/A   Clear
8:52 PM 80.1 °F 83.6 °F 71.1 °F 74% 29.78 in 10.0 mi SSW 4.6 mph - N/A   Clear
9:52 PM 78.1 °F - 71.1 °F 79% 29.80 in 10.0 mi South 6.9 mph - N/A   Clear
10:52 PM 78.1 °F - 71.1 °F 79% 29.79 in 10.0 mi South 9.2 mph - N/A   Clear
11:52 PM 75.9 °F - 69.1 °F 79% 29.78 in 10.0 mi South 15.0 mph 20.7 mph 0.00 in   Clear